Volver al catálogo

NAHUEL I1

ANIK C1

ActivoComunicacionesGEO
NORAD 15642·PAYLOAD·🇦🇷 Argentina

Lanzado Apr 12, 1985 desde Cape Canaveral Space Force Station

Loading…

TLE

ActualizadoSource: Space-Track

Época: Sep 13, 2026, 20:02 UTC

1 15642U 85028B   26256.83517153 -.00000298  00000-0  00000-0 0  9995
2 15642  14.7452 351.4424 0014119 158.7217  97.0263  0.99666114 47272

Sigue NAHUEL I1 en tiempo real con AllMySat

Download on the App Store